Location: Dillon
(41.1766°N, 107.0923°W)
Time: 12:44:34
(UTC+00:00)

FALCONSAT 3 - Pass Details

Date: 30 June 2022
Orbit: 393 x 398 km, 35.4° (Epoch: 14 August)

Event Time Altitude Azimuth Distance (km) Brightness Sun altitude
Rises 04:18:42 0° 226° (SW) 2,321 ? -14.1°
Reaches altitude 10° 04:21:17 10° 205° (SSW) 1,458 ? -14.5°
Enters shadow 04:21:35 11° 201° (SSW) 1,378 ? -14.5°
